Regional Weather Roundup
Issued by NWS

Home | Current Version | Previous Version | Graphics & Text | Print | Product List | Glossary Off
Versions: 1 2 3 4 5 6 7 8 9 10 11 12 13 14 15 16 17 18 19 20 21 22 23 24 25 26 27 28 29 30 31 32 33 34 35 36 37 38 39 40 41 42 43 44 45 46 47 48 49 50

239
ASUS43 KMPX 191801
RWRMN
WEATHER ROUNDUP FOR MINNESOTA
NATIONAL WEATHER SERVICE TWIN CITIES/CHANHASSEN MN
1200 PM CST SUN FEB 19 2017


NOTE: "FAIR" INDICATES FEW OR NO CLOUDS BELOW 12,000 FEET WITH NO
SIGNIFICANT WEATHER AND/OR OBSTRUCTIONS TO VISIBILITY. N/A MEANS
CURRENT SKY AND/OR WEATHER CONDITIONS ARE NOT AVAILABLE.

MNZ060>063-068>070-191900-
   Twin Cities Metro

CITY           SKY/WX    TMP DP  RH WIND       PRES   REMARKS
TWIN CITIES    PTSUNNY   55  38  52 SE10      29.93S
6HR MIN TEMP:  34; 6HR MAX TEMP:  55;

ST PAUL        SUNNY     53  39  59 S12       29.94F
CRYSTAL        SUNNY     56  36  47 SE13      29.91S
BLAINE         MOSUNNY   57  37  47 SE10G16   29.92F
LAKEVILLE      SUNNY     52  43  71 SE8       29.92S
EDEN PRAIRIE   SUNNY     56  39  53 SE9       29.90F
6HR MIN TEMP:  31; 6HR MAX TEMP:  56;

SOUTH ST PAUL  SUNNY     51  38  59 S8        29.94S
LAKE ELMO      FAIR      54  41  62 SE8       29.94F
$$
MNZ001>005-007-008-013>017-022>024-027-028-191900-
   Northwest Minnesota

CITY           SKY/WX    TMP DP  RH WIND       PRES   REMARKS
BEMIDJI        CLOUDY    40  32  74 SE10      29.85F
HALLOCK        CLOUDY    39  34  81 E12       29.76F
ROSEAU         CLOUDY    37  32  81 E9        29.83S
WARROAD        MOSUNNY   37  32  81 NE9       29.86F
THIEF RVR FALL CLOUDY    39  33  79 E13       29.79F
CROOKSTON      CLOUDY    43  37  81 SE17      29.76S
FOSSTON        MOSUNNY   43  34  70 E12       29.80S
DETROIT LAKES  CLOUDY    43  36  75 SE14G21   29.80S
MOORHEAD       PTSUNNY   48  41  76 SE13G21   29.73F
PARK RAPIDS    CLOUDY    45  34  65 SE9       29.83F
MAHNOMEN       FAIR      44  37  75 SE14      29.78S
$$
MNZ006-009>011-018-025>026-191900-
   North Central Minnesota

CITY           SKY/WX    TMP DP  RH WIND       PRES   REMARKS
BAUDETTE       CLOUDY    39  30  70 E8        29.87F
FLAG ISLAND    CLOUDY    37  28  70 E8        29.88F
INTL FALLS     MOSUNNY   41  30  65 SE10      29.91F
6HR MIN TEMP:  29; 6HR MAX TEMP:  41;

WASKISH        CLOUDY    45  30  57 SE7       29.87S
BIG FORK       CLOUDY    46  28  49 SE6       29.90F
LONGVILLE      CLOUDY    46  32  57 SE5       29.88S
GRAND RAPIDS   PTSUNNY   48  30  49 SE7       29.92F
CRANE LAKE     CLOUDY    43  30  61 CALM      29.97S
ORR            MOSUNNY   45  27  49 CALM      29.90F
COOK           MOSUNNY   48  30  49 SE3       29.93F
WALKER         CLOUDY    41  31  69 E3        29.87S
$$
MNZ012-019>021-037-191900-
   Northeast Minnesota

CITY           SKY/WX    TMP DP  RH WIND       PRES   REMARKS
DULUTH         SUNNY     42  31  64 SE10      29.96F
6HR MIN TEMP:  28; 6HR MAX TEMP:  42;

ELY            CLOUDY    43  30  61 E5        29.96S
HIBBING        MOSUNNY   42  29  59 SE12      29.93F
EVELETH        MOSUNNY   47  24  41 SE8       29.95F
DULUTH HARBOR  SUNNY     37  34  87 CALM      30.00F
TWO HARBORS    SUNNY     46  34  61 E7        29.97F
SILVER BAY     MOSUNNY   45  30  57 SE5       29.98R
GRAND MARAIS     N/A     40  33  76 CALM      30.04R
G MARAIS ARPRT CLOUDY    43  25  49 S6        30.00R
$$
MNZ029>031-032-039>041-046>048-054>057-064-191900-
   West Central Minnesota

CITY           SKY/WX    TMP DP  RH WIND       PRES   REMARKS
FERGUS FALLS   CLOUDY    48  39  71 SE20      29.79F
WHEATON        CLOUDY    48  41  76 SE20G25   29.74F
MORRIS         CLOUDY    50  45  81 SE20      29.76F
ALEXANDRIA     CLOUDY    48  41  76 SE14      29.82F
ELBOW LAKE     FAIR      49  40  72 SE15G23   29.77F
WADENA         CLOUDY    43  39  87 SE10      29.83F
GLENWOOD       CLOUDY    48  43  81 SE15      29.83S
APPLETON       CLOUDY    54  43  66 SE15      29.77F
BENSON         CLOUDY    54  39  58 S16       29.81F
ORTONVILLE     CLOUDY    48  43  81 SE14G20   29.74F
WILLMAR        FAIR      52  45  76 SE16      29.84F
$$
MNZ033>034-036-042>043-049>051-058-059-191900-
   Central Minnesota

CITY           SKY/WX    TMP DP  RH WIND       PRES   REMARKS
ST CLOUD       MOSUNNY   52  42  69 SE14      29.89S
6HR MIN TEMP:  31; 6HR MAX TEMP:  52;

SAUK CENTRE    FAIR      50  41  69 SE15G22   29.84F
PAYNESVILLE    CLOUDY    51  40  66 SE14      29.85F
AITKIN         MOSUNNY   52  30  43 SE7       29.89F
PINE RIVER     MOSUNNY   45  36  70 SE12      29.90F
BRAINERD       CLOUDY    45  35  68 E6        29.87F
STAPLES        MOSUNNY   45  39  81 SE8       29.85S
LONG PRAIRIE   FAIR      46  41  81 E10       29.85F
LITTLE FALLS   MOSUNNY   50  37  62 SE13      29.88S
LITCHFIELD     SUNNY     54  45  71 SE9G16    29.87F
BUFFALO        SUNNY     54  39  56 SE9       29.90F
MAPLE LAKE     MOSUNNY   55  43  63 SE8       29.89F
HUTCHINSON     CLOUDY    55  44  68 SE14      29.88S
$$
MNZ037-044-045-052-053-191900-
   East Central Minnesota

CITY           SKY/WX    TMP DP  RH WIND       PRES   REMARKS
PRINCETON      MOSUNNY   57  37  47 SE12      29.91S
MORA           CLOUDY    46  36  66 SE6       29.93F
CAMBRIDGE      MOSUNNY   55  39  54 E9        29.90F
RUSH CITY      MOSUNNY   54  36  50 SE9G16    29.93F
MOOSE LAKE     MOSUNNY   52  32  46 CALM      29.92F
HINCKLEY       FAIR      50  37  62 E6        29.94F
CLOQUET        CLOUDY    45  28  53 E8        29.95F
MCGREGOR       CLOUDY    48  32  53 SE7       29.92F
$$
MNZ071>073-080-081-089-090-097-098-191900-
   Southwest Minnesota

CITY           SKY/WX    TMP DP  RH WIND       PRES   REMARKS
MONTEVIDEO     CLOUDY    54  45  71 S15       29.81S
GRANITE FALLS  CLOUDY    54  46  73 SE14      29.82S
CANBY          PTSUNNY   59  45  58 S15G21    29.77F
MARSHALL       CLOUDY    58  46  64 S18       29.79S
REDWOOD FALLS  MOSUNNY   55  43  63 SE15      29.83R
OLIVIA         MOSUNNY   54  45  71 SE15      29.83S
PIPESTONE      MOSUNNY   54  43  66 S10       29.79S
WINDOM         MOSUNNY   57  45  62 S10G17    29.83F
WORTHINGTON    MOSUNNY   54  48  80 S14       29.82S
JACKSON        SUNNY     54  43  66 S13       29.85F
TRACY          MOSUNNY   58  47  67 S14G20    29.81S
SLAYTON        MOSUNNY   55  49  78 SE15      29.82S
$$
MNZ065>067-074>077-082>085-091>093-191900-
   South Central Minnesota

CITY           SKY/WX    TMP DP  RH WIND       PRES   REMARKS
MANKATO          N/A     55  42  61 SE20      29.88F
NEW ULM        SUNNY     55  43  62 S16       29.85F
ST JAMES       SUNNY     54  45  71 SE14      29.87S
FAIRMONT       MOSUNNY   54  45  71 S16       29.87F
GLENCOE        SUNNY     56  45  67 SE9       29.87F
FARIBAULT      CLOUDY    55  43  62 SE13G18   29.92F
OWATONNA       CLOUDY    54  43  66 SE13G18   29.92S
WASECA         MOSUNNY   52  43  71 SE12      29.92S
ALBERT LEA     CLOUDY    52  43  71 S14       29.92F
$$
MNZ078>079-086>088-094>096-191900-
   Southeast Minnesota

CITY           SKY/WX    TMP DP  RH WIND       PRES   REMARKS
ROCHESTER      MOSUNNY   48  42  80 SE14      29.96F
6HR MIN TEMP:  31; 6HR MAX TEMP:  49;

RED WING       SUNNY     52  37  58 SE9       29.95F
STANTON        SUNNY     54  42  62 S9        29.92F
DODGE CENTER   MOSUNNY   48  43  81 SE13      29.93F
WINONA         SUNNY     50  36  57 SE9       29.99F
AUSTIN         MOSUNNY   52  43  71 SE6       29.94F
PRESTON        CLOUDY    49  40  71 S8        29.99S
$$
ABBREVIATIONS USED IN REMARKS
   TC - TEMPERATURES IN CELSIUS
  WCI - WIND CHILL INDEX
   HX - HEAT INDEX
  VSB - VISIBILITY
$$




USA.gov is the U.S. government's official web portal to all federal, state and local government web resources and services.